Regional Weather Roundup
Issued by NWS Little Rock, AR

Home | Current Version | Previous Version | Text Only | Print | Product List | Glossary Off
Versions: 1 2 3 4 5 6 7 8 9 10 11 12 13 14 15 16 17 18 19 20 21 22 23 24 25 26 27 28 29 30 31 32 33 34 35 36 37 38 39 40 41 42 43 44 45 46 47 48 49 50

000
ASUS44 KLZK 261205
RWRLZK

WEATHER ROUNDUP FOR ARKANSAS
NATIONAL WEATHER SERVICE LITTLE ROCK AR
700 AM CDT SUN APR 26 2015

NOTE: "FAIR" INDICATES FEW OR NO CLOUDS BELOW 12,000 FEET WITH NO
SIGNIFICANT WEATHER AND/OR OBSTRUCTIONS TO VISIBILITY.

ARZ001-003-010-029-261300-
NORTHWEST ARKANSAS

CITY           SKY/WX    TMP DP  RH WIND       PRES   REMARKS
FAYETTEVILLE   CLOUDY    55  52  89 NE7       29.79R
6HR MIN TEMP:  53; 6HR MAX TEMP:  57;

FORT SMITH     CLEAR     57  53  86 NE7       29.74R
6HR MIN TEMP:  56; 6HR MAX TEMP:  67;

HARRISON       CLOUDY    56  52  86 CALM      29.82R
6HR MIN TEMP:  55; 6HR MAX TEMP:  57;

BENTONVILLE    CLOUDY   N/A N/A N/A NE10      29.80R
ROGERS         CLOUDY    55  50  83 NE10      29.81R
6HR MIN TEMP:  55; 6HR MAX TEMP:  57;

SILOAM SPGS    CLOUDY   N/A N/A N/A E13       29.80R
6HR MIN TEMP:  55; 6HR MAX TEMP:  57;

HIGHFILL       CLOUDY    55  49  80 E16G22    29.79R
6HR MIN TEMP:  55; 6HR MAX TEMP:  58;

SPRINGDALE     CLOUDY    55  52  88 NE12      29.81R
$$

ARZ004-005-016-261300-
NORTH CENTRAL ARKANSAS

CITY           SKY/WX    TMP DP  RH WIND       PRES   REMARKS
BATESVILLE     CLOUDY    55  52  88 NW3       29.78R
6HR MIN TEMP:  55; 6HR MAX TEMP:  64;

FLIPPIN        CLOUDY    57  52  82 NE6       29.79R
6HR MIN TEMP:  57; 6HR MAX TEMP:  61;

MTN HOME       CLOUDY    56  51  84 VRB5      29.80R
6HR MIN TEMP:  56; 6HR MAX TEMP:  59;

$$

ARZ040-041-261300-
WEST CENTRAL ARKANSAS

CITY           SKY/WX    TMP DP  RH WIND       PRES   REMARKS
MENA           CLEAR     50  50 100 CALM      29.75R
MOUNT IDA      CLEAR     52  50  93 CALM      29.73R
6HR MIN TEMP:  52; 6HR MAX TEMP:  59;

$$

ARZ009-017-025-026-028-261300-
NORTHEAST ARKANSAS

CITY           SKY/WX    TMP DP  RH WIND       PRES   REMARKS
CORNING          N/A     55  50  82 N13       29.80R
JONESBORO      CLOUDY    57  55  93 NE8       29.77R
6HR MIN TEMP:  55; 6HR MAX TEMP:  66;

NEWPORT        CLOUDY    59  57  92 N17       29.79R
6HR MIN TEMP:  57; 6HR MAX TEMP:  64;

WALNUT RIDGE   CLOUDY    57  50  77 N12       29.79R
6HR MIN TEMP:  55; 6HR MAX TEMP:  61;

BLYTHEVILLE    CLOUDY    56  55  97 N13       29.77R
6HR MIN TEMP:  56; 6HR MAX TEMP:  60;

$$

ARZ022-023-033-042-044-261300-
CENTRAL ARKANSAS

CITY           SKY/WX    TMP DP  RH WIND       PRES   REMARKS
LITTLE ROCK    CLEAR     60  53  77 N8        29.77R
6HR MIN TEMP:  59; 6HR MAX TEMP:  68;

N LITTLE ROCK    N/A     58  56  92 N7        29.77R
6HR MIN TEMP:  58; 6HR MAX TEMP:  69;

JACKSONVILLE   CLEAR     59  55  85 N8        29.77R
6HR MIN TEMP:  54; 6HR MAX TEMP:  66;

SEARCY         CLEAR     58  55  90 N7        29.79R
6HR MIN TEMP:  55; 6HR MAX TEMP:  65;

HOT SPRINGS    CLEAR     54  51  90 CALM      29.75R
6HR MIN TEMP:  52; 6HR MAX TEMP:  60;

RUSSELLVILLE   CLEAR     58  54  86 NE3       29.77R
6HR MIN TEMP:  55; 6HR MAX TEMP:  60;

CLINTON        MOCLDY    57  54  88 CALM      29.80R
$$

ARZ036-261300-
EAST ARKANSAS

CITY           SKY/WX    TMP DP  RH WIND       PRES   REMARKS
WEST MEMPHIS   MOCLDY    60  59  96 N9        29.74R
6HR MIN TEMP:  58; 6HR MAX TEMP:  68;

$$

ARZ050-053-066-070-073-261300-
SOUTHWEST ARKANSAS

CITY           SKY/WX    TMP DP  RH WIND       PRES   REMARKS
ARKADELPHIA    FAIR      56  56 100 CALM      29.76R
6HR MIN TEMP:  55; 6HR MAX TEMP:  62; 6HR PCP: TRACE;

CAMDEN         CLEAR     54  50  87 CALM      29.74R FOG
TEXARKANA      CLEAR     55  54  96 NE5       29.71R
6HR MIN TEMP:  55; 6HR MAX TEMP:  65;

EL DORADO      CLEAR     58  55  90 CALM      29.75R
6HR MIN TEMP:  55; 6HR MAX TEMP:  61;

DE QUEEN       FAIR      51  50  96 CALM      29.70R
6HR MIN TEMP:  51; 6HR MAX TEMP:  54;

$$

ARZ056-057-069-261300-
SOUTHEAST ARKANSAS

CITY           SKY/WX    TMP DP  RH WIND       PRES   REMARKS
PINE BLUFF     CLEAR     58  54  86 N6        29.74R
6HR MIN TEMP:  55; 6HR MAX TEMP:  65;

STUTTGART      CLEAR     59  54  82 N9        29.75R
6HR MIN TEMP:  57; 6HR MAX TEMP:  64;

MONTICELLO     CLEAR     57  56  96 CALM      29.74R
6HR MIN TEMP:  55; 6HR MAX TEMP:  68;


$$




USA.gov is the U.S. government's official web portal to all federal, state and local government web resources and services.